Startseite
Über Mich
AHP4
Galerie
Sehschlangen
Tourenbuch
Bookmarks
Elektronik
Bewertung
Geschichten
[Tagesmessung] [Jahreswerte] [Information]

Messwerte vom 19.03.2022

Die letzten Messwerte von 23:58:47 Uhr:
KategorieMesswert
Temperatur [°C]3
Luftdruck [mBar]1022
Sonneneinstrahlung0
Wind [km/h]1 aus Nordost
Niederschlag [l/m²]0
rel.Luftfeucht.83.4%
CO2 [ppm]1765

Diagramme
Messwerte vom 19.03.2022
Tagesaggregation
KategorieMinimumMaximumSchnittSumme
Temperatur [°C]-1115.0542
Luftdruck [mBar]102210321026.7750
Sonneneinstrahlung247105.9542
Wind [km/h]23
rF [%]42.396.676.93
Niederschlag [l/m²]0
CO2 [ppm]3982200927.3
Einordnung alsFrosttag
Vegetationstag

Messungen an benachbarten Tagen: Zur Jahresaggregation 2022
Tabelle aller Messwerte
UhrzeitTemperatur [°C]Luftdruck [mBar]SonneWind [km/h]RichtungRegen [l/m²]rF [%]CO2 [ppm]
00:01:47 4 1030 7 0 SO 0 95.7 524
00:04:48 4 1029 8 1 O 0 95.8 518
00:07:48 4 1030 9 0 SO 0 95.8 509
00:10:47 4 1030 8 1 NO 0 95.9 510
00:13:46 4 1030 8 0 O 0 95.7 513
00:16:46 4 1030 7 0 O 0 95.6 521
00:19:48 4 1030 7 0 SO 0 95.7 521
00:22:47 4 1030 7 0 NO 0 95.7 515
00:25:46 4 1030 7 0 O 0 96.3 515
00:28:47 4 1030 7 0 O 0 96.2 516
00:31:48 4 1030 7 0 SO 0 96.4 507
00:34:47 4 1030 7 0 SO 0 96.5 504
00:37:48 3 1030 10 0 SO 0 96.4 499
00:40:46 3 1030 9 0 SO 0 96.5 498
00:43:47 3 1030 7 0 O 0 96.5 498
00:46:46 3 1030 7 0 O 0 96.2 498
00:49:46 3 1031 7 0 S 0 96.3 504
00:52:47 3 1030 8 0 SO 0 96.6 506
00:55:47 3 1030 9 0 SO 0 96.6 507
00:58:51 3 1029 7 0 SO 0 96.6 498
01:01:46 3 1030 7 0 SO 0 96.6 498
01:04:45 3 1030 7 0 SO 0 96.6 495
01:07:51 3 1031 7 0 SO 0 96.6 495
01:10:47 3 1029 8 0 SO 0 96.6 497
01:13:47 2 1030 8 0 SO 0 96.6 497
01:16:47 2 1030 8 0 SO 0 96.6 495
01:19:48 2 1031 8 0 SO 0 96.6 487
01:22:47 2 1029 7 0 SO 0 96.6 495
01:25:47 2 1031 8 0 SO 0 96.6 488
01:28:46 2 1030 7 0 SO 0 96.6 490
01:31:46 2 1031 7 0 O 0 96.6 483
01:34:48 2 1030 8 0 SO 0 96.6 480
01:37:44 3 1031 7 0 O 0 96.6 477
01:40:50 3 1031 7 1 NO 0 96.6 486
01:43:48 3 1030 7 0 O 0 96.6 477
01:46:47 3 1031 7 1 NO 0 96.6 468
01:49:46 3 1031 9 0 O 0 96.6 469
01:52:49 3 1030 8 3 NW 0 96.6 469
01:55:44 3 1030 7 0 S 0 96.6 466
01:58:47 3 1030 9 1 NO 0 96.6 465
02:01:49 3 1031 8 0 SO 0 96.6 463
02:04:49 3 1032 7 1 SO 0 96.6 463
02:07:46 3 1030 9 1 O 0 96.6 475
02:10:48 3 1030 8 0 O 0 96.6 457
02:13:49 3 1032 8 2 NO 0 96.6 465
02:16:47 3 1030 8 0 NO 0 96.6 466
02:19:46 3 1030 8 0 SO 0 96.6 457
02:22:47 3 1030 8 1 SO 0 96.6 442
02:25:48 3 1030 8 0 O 0 96.6 433
02:28:45 3 1031 14 0 O 0 96.6 433
02:31:46 3 1031 7 0 SO 0 96.6 439
02:34:47 3 1031 7 3 SO 0 96.6 442
02:37:47 3 1031 7 0 N 0 96.6 457
02:40:47 3 1030 8 1 NW 0 96.6 451
02:43:46 3 1030 8 2 N 0 96.6 447
02:46:47 3 1030 8 1 SO 0 96.6 448
02:49:46 3 1031 8 0 S 0 96.6 453
02:52:49 3 1031 8 1 SO 0 96.6 455
02:55:48 3 1030 9 0 N 0 96.6 448
02:58:48 3 1030 9 1 O 0 96.6 445
03:01:48 3 1030 8 0 SO 0 96.6 439
03:04:47 2 1029 7 0 O 0 96.6 445
03:07:47 2 1029 7 0 O 0 96.6 454
03:10:46 2 1029 7 0 O 0 96.6 451
03:13:47 2 1030 8 0 O 0 96.6 454
03:16:45 2 1030 9 0 O 0 96.6 452
03:19:47 2 1029 8 0 O 0 96.6 453
03:22:47 2 1030 7 0 O 0 96.6 448
03:25:46 2 1030 7 0 O 0 96.6 447
03:28:45 1 1030 7 0 O 0 96.6 451
03:31:46 1 1029 8 0 O 0 96.6 445
03:34:45 1 1031 9 0 O 0 96.6 451
03:37:47 1 1030 9 0 O 0 96.6 448
03:40:46 1 1029 7 0 O 0 96.6 442
03:43:46 1 1030 8 0 O 0 96.6 470
03:46:49 1 1030 8 0 O 0 96.6 480
03:49:44 1 1029 8 0 O 0 96.6 472
03:52:49 0 1030 8 0 O 0 96.6 466
03:55:46 0 1029 7 0 O 0 96.6 466
03:58:46 0 1029 8 0 O 0 96.6 467
04:01:46 0 1030 7 0 O 0 96.6 469
04:04:47 0 1029 9 0 O 0 96.6 463
04:07:46 0 1030 3 0 O 0 96.6 464
04:10:45 0 1030 7 0 O 0 96.6 459
04:13:47 0 1030 8 0 O 0 96.6 457
04:16:46 0 1029 8 0 O 0 96.6 458
04:19:45 0 1030 8 0 O 0 96.6 456
04:22:46 0 1029 7 0 O 0 96.6 443
04:25:46 0 1030 8 0 O 0 96.6 443
04:28:47 0 1029 9 0 O 0 96.6 451
04:31:46 0 1030 8 0 O 0 96.6 454
04:34:46 0 1030 9 0 O 0 96.6 457
04:37:48 0 1029 7 0 O 0 96.6 455
04:40:48 0 1029 8 0 O 0 96.6 453
04:43:45 0 1030 12 0 O 0 96.6 451
04:46:46 0 1030 8 0 O 0 96.6 451
04:49:47 0 1029 7 0 O 0 96.6 445
04:52:45 0 1030 7 0 O 0 96.6 448
04:55:47 0 1029 0 0 O 0 96.6 455
04:58:45 0 1029 0 0 O 0 96.6 460
05:01:47 0 1029 0 0 O 0 96.6 495
05:04:45 0 1030 0 0 O 0 96.6 492
05:07:45 0 1030 0 0 O 0 96.6 483
05:10:49 0 1029 0 0 O 0 96.6 483
05:13:48 0 1030 0 0 O 0 96.6 509
05:16:47 0 1030 0 0 O 0 96.6 524
05:19:48 0 1030 0 1 SO 0 96.6 551
05:22:48 0 1030 0 0 SO 0 96.6 556
05:25:46 0 1029 0 0 SO 0 96.6 559
05:28:47 0 1029 0 0 SO 0 96.6 568
05:31:47 0 1029 0 0 SO 0 96.6 574
05:34:47 0 1029 0 0 SO 0 96.6 580
05:37:49 0 1029 0 0 SO 0 96.6 589
05:40:47 0 1029 0 0 SO 0 96.6 594
05:43:49 0 1029 0 0 SO 0 96.6 600
05:46:47 0 1030 0 0 SO 0 96.6 603
05:49:48 -1 1029 0 0 SO 0 96.6 603
05:52:49 -1 1029 0 0 SO 0 96.6 598
05:55:48 -1 1029 0 0 SO 0 96.6 598
05:58:50 -1 1029 3 0 SO 0 96.6 642
06:01:48 -1 1029 6 0 SO 0 96.6 642
06:04:48 -1 1029 10 0 SO 0 96.6 651
06:07:48 -1 1029 16 0 SO 0 96.6 650
06:10:48 -1 1029 24 0 SO 0 96.6 656
06:13:48 -1 1030 35 0 SO 0 96.6 661
06:16:48 -1 1030 48 0 SO 0 96.6 667
06:19:48 -1 1029 62 0 SO 0 96.6 670
06:22:51 -1 1029 76 0 SO 0 96.6 669
06:25:48 -1 1030 89 0 SO 0 96.6 673
06:28:49 -1 1030 101 0 SO 0 96.6 673
06:31:49 -1 1029 112 0 SO 0 96.6 677
06:34:52 -1 1029 122 0 SO 0 96.6 678
06:37:50 -1 1029 131 0 SO 0 96.6 686
06:40:49 -1 1028 138 0 SO 0 96.6 688
06:43:48 -1 1028 145 0 SO 0 96.6 695
06:46:50 -1 1030 150 0 SO 0 96.6 700
06:49:50 -1 1028 155 0 SO 0 96.6 695
06:52:47 -1 1029 159 0 SO 0 96.6 697
06:55:49 -1 1029 162 0 SO 0 96.6 698
06:58:48 -1 1029 165 0 SO 0 96.6 705
07:01:47 -1 1029 168 0 SO 0 96.6 715
07:04:50 -1 1029 170 0 SO 0 96.6 723
07:07:51 -1 1029 172 0 SO 0 96.6 720
07:10:48 -1 1029 174 0 SO 0 96.6 717
07:13:50 -1 1030 175 0 SO 0 96.6 718
07:16:49 -1 1029 177 0 SO 0 96.6 722
07:19:49 -1 1029 178 0 SO 0 96.6 725
07:22:49 0 1029 179 0 SO 0 96.6 732
07:25:50 0 1029 180 0 SO 0 96.6 729
07:28:52 0 1029 181 0 SO 0 96.6 728
07:31:47 0 1031 182 1 SO 0 96.6 735
07:34:48 1 1029 183 2 S 0 96.6 736
07:37:48 1 1030 183 1 O 0 96.6 736
07:40:49 1 1029 184 2 NW 0 96.6 741
07:43:49 1 1029 184 2 O 0 96.6 739
07:46:45 1 1029 185 1 S 0 96.6 730
07:49:49 2 1029 185 2 NO 0 96.6 728
07:52:47 2 1029 186 1 O 0 96.6 727
07:55:48 2 1029 186 2 NW 0 96.6 727
07:58:50 2 1028 186 2 NW 0 96.6 729
08:01:47 2 1029 186 2 N 0 96.6 735
08:04:48 2 1029 187 1 S 0 96.6 734
08:07:47 2 1029 187 4 N 0 96.6 736
08:10:51 2 1029 187 4 N 0 96.6 739
08:13:51 2 1029 188 2 N 0 96.6 736
08:16:49 2 1029 188 0 NO 0 96.6 741
08:19:48 3 1028 188 8 NO 0 96.6 743
08:22:48 3 1029 188 2 0 96.6 741
08:25:48 3 1029 189 1 SO 0 96.6 744
08:28:49 3 1029 189 5 NO 0 96.6 741
08:31:49 3 1029 189 7 NW 0 96.6 741
08:34:48 3 1028 189 9 S 0 96.6 736
08:37:48 3 1029 189 0 O 0 96.5 734
08:40:49 3 1029 190 1 NO 0 96.4 743
08:43:48 3 1029 190 6 NW 0 96.3 739
08:46:50 3 1029 190 4 SO 0 95.5 738
08:49:47 3 1028 190 9 N 0 94.9 738
08:52:47 3 1029 190 6 N 0 94.6 736
08:55:49 3 1029 190 4 O 0 94.7 741
08:58:47 3 1029 191 8 N 0 94.4 741
09:01:50 3 1029 191 2 W 0 93.6 738
09:04:48 3 1029 191 4 SW 0 93.3 736
09:07:47 3 1029 191 3 N 0 93.1 738
09:10:48 4 1028 191 2 N 0 93.1 736
09:13:47 4 1028 191 4 O 0 92.9 740
09:16:49 4 1029 192 5 NO 0 92.2 741
09:19:48 4 1029 192 7 NW 0 91.4 739
09:22:47 4 1029 192 3 N 0 91 739
09:25:48 4 1029 192 3 O 0 90.5 738
09:28:50 4 1029 193 1 SO 0 90.3 732
09:31:51 4 1029 194 2 NW 0 90.3 737
09:34:46 4 1028 194 3 O 0 90.6 746
09:37:47 4 1029 195 4 N 0 90.5 744
09:40:51 4 1028 196 3 NO 0 89.9 752
09:43:49 4 1028 197 7 NO 0 89.8 747
09:46:52 4 1028 197 2 NO 0 89.4 747
09:49:47 4 1029 198 4 N 0 89.7 744
09:52:47 4 1028 198 7 NW 0 90.1 749
09:55:50 5 1028 199 2 NO 0 89.2 753
09:58:47 5 1028 199 4 N 0 89.3 752
10:01:47 5 1029 200 3 O 0 89.3 755
10:04:48 5 1029 199 7 NO 0 88.6 753
10:07:48 5 1028 200 6 NO 0 86.9 755
10:10:48 5 1028 200 7 NO 0 86 753
10:13:48 5 1028 200 5 NW 0 86.2 753
10:16:49 6 1028 200 7 N 0 84.6 744
10:19:49 6 1029 200 9 NW 0 84.4 741
10:22:47 6 1028 200 2 N 0 84.9 749
10:25:48 6 1028 200 7 NW 0 83.8 747
10:28:49 6 1028 200 4 SW 0 82.7 744
10:31:48 6 1028 201 5 N 0 82.3 743
10:34:48 6 1029 201 5 SW 0 81.8 761
10:37:48 6 1028 201 7 N 0 81.1 766
10:40:47 6 1028 201 4 N 0 80.3 764
10:43:48 7 1028 201 2 N 0 80.2 767
10:46:49 7 1028 201 7 NW 0 80.2 776
10:49:49 7 1028 201 9 NW 0 79.5 761
10:52:48 7 1028 201 4 NO 0 80.1 753
10:55:49 7 1028 202 10 S 0 79.4 766
10:58:47 7 1028 202 4 N 0 78.2 768
11:01:46 7 1028 202 5 NO 0 77.4 785
11:04:46 7 1028 202 6 N 0 77.8 773
11:07:48 7 1028 203 2 SW 0 76.6 761
11:10:50 7 1028 203 3 NW 0 76.9 770
11:13:46 7 1028 203 5 W 0 76.3 767
11:16:47 7 1028 203 6 N 0 75.3 766
11:19:48 7 1028 204 9 NW 0 75.1 765
11:22:47 7 1028 204 5 O 0 74.2 768
11:25:49 8 1027 204 12 NW 0 73.6 762
11:28:46 8 1028 204 6 NW 0 72.6 752
11:31:48 8 1028 205 2 NO 0 72 750
11:34:49 9 1028 205 4 0 71.3 757
11:37:48 9 1028 205 11 N 0 66.6 752
11:40:49 9 1028 206 4 NW 0 66.5 759
11:43:47 9 1028 207 3 O 0 67.6 761
11:46:48 9 1027 207 4 O 0 65.9 763
11:49:46 9 1028 208 7 N 0 64.7 767
11:52:46 10 1028 208 5 N 0 64.5 796
11:55:48 10 1028 209 5 SO 0 65.3 829
11:58:48 10 1027 209 6 O 0 61.9 823
12:01:50 10 1027 209 6 NW 0 61.9 807
12:04:48 10 1027 210 2 N 0 61.9 800
12:07:49 10 1027 211 5 NO 0 61.5 792
12:10:49 10 1028 212 10 NW 0 62.7 793
12:13:49 10 1028 213 8 NW 0 61.6 787
12:16:48 10 1028 214 9 NO 0 61 780
12:19:50 10 1027 213 13 N 0 60.3 784
12:22:48 10 1027 224 14 W 0 60.5 770
12:25:48 10 1027 230 17 N 0 60.3 694
12:28:48 11 1027 230 5 W 0 57.7 624
12:31:47 11 1027 228 8 O 0 56.8 582
12:34:47 11 1027 227 14 SO 0 55.7 545
12:37:47 10 1027 222 4 NO 0 54.1 519
12:40:49 10 1027 221 3 SW 0 56.2 492
12:43:48 10 1026 225 6 N 0 57.6 475
12:46:48 10 1027 219 7 O 0 56.8 472
12:49:48 10 1026 227 7 NO 0 56.7 457
12:52:51 10 1026 233 13 NW 0 57.9 443
12:55:50 11 1026 233 6 SW 0 55.8 434
12:58:48 11 1026 226 5 O 0 55.8 433
13:01:47 11 1026 226 9 N 0 55.4 436
13:04:48 11 1027 225 8 NW 0 54.1 439
13:07:48 10 1026 211 6 N 0 54.8 437
13:10:49 10 1026 207 6 NW 0 55.5 446
13:13:47 9 1026 228 5 N 0 56.6 454
13:16:49 10 1026 220 1 NW 0 57.9 442
13:19:48 10 1026 225 4 NO 0 57.4 433
13:22:49 10 1025 218 5 NW 0 56.1 424
13:25:48 9 1026 216 3 NO 0 55.6 427
13:28:48 9 1026 216 10 NO 0 56.6 424
13:31:44 9 1026 216 0 O 0 57.1 436
13:34:47 9 1025 221 4 SO 0 56.7 439
13:37:49 10 1025 229 13 N 0 56.4 445
13:40:49 10 1025 236 5 NO 0 54.3 445
13:43:48 10 1025 223 4 SO 0 53.5 445
13:46:46 10 1025 213 9 O 0 52.1 436
13:49:46 10 1024 214 16 0 51.6 436
13:52:46 10 1025 212 5 O 0 52.4 445
13:55:46 10 1025 208 6 S 0 52.2 459
13:58:50 10 1025 209 4 NW 0 52 463
14:01:47 10 1025 221 6 NW 0 51.9 471
14:04:47 10 1025 221 4 O 0 52.7 506
14:07:46 10 1025 225 5 O 0 51.6 519
14:10:48 10 1024 245 6 NW 0 52.6 541
14:13:48 10 1025 230 5 SO 0 51.1 536
14:16:48 10 1025 245 3 N 0 50 524
14:19:48 10 1025 246 5 NO 0 50.3 524
14:22:50 11 1025 234 10 N 0 46.5 518
14:25:49 11 1025 245 23 N 0 46.7 509
14:28:48 11 1024 221 5 SO 0 47.5 504
14:31:52 11 1024 227 3 NW 0 48.5 507
14:34:48 11 1024 246 7 N 0 49.3 509
14:37:50 11 1024 246 6 O 0 49 527
14:40:48 11 1024 246 7 W 0 48.1 571
14:43:48 11 1025 246 0 NO 0 47.6 574
14:46:45 11 1025 246 6 0 47.3 519
14:49:47 11 1024 246 2 N 0 46.7 480
14:52:48 11 1024 246 8 NO 0 45.7 480
14:55:50 11 1024 246 4 O 0 44.9 475
14:58:50 11 1024 231 6 SO 0 44.1 431
15:01:48 11 1024 247 7 O 0 43.9 419
15:04:46 11 1025 245 9 O 0 44.3 404
15:07:48 11 1024 239 17 SO 0 44.4 405
15:10:48 11 1024 226 10 N 0 42.4 407
15:13:47 11 1024 228 8 NO 0 42.3 398
15:16:48 11 1024 232 5 N 0 43.5 407
15:19:48 11 1024 247 2 N 0 43.9 404
15:22:47 11 1025 226 3 O 0 44.7 404
15:25:48 11 1024 226 9 NO 0 45 407
15:28:47 11 1024 247 3 N 0 45.4 405
15:31:48 11 1024 240 4 NO 0 45.4 407
15:34:49 11 1024 247 10 O 0 45 404
15:37:46 11 1024 236 4 O 0 44.6 414
15:40:48 11 1024 247 10 N 0 44.7 428
15:43:47 11 1024 246 10 O 0 44.5 453
15:46:47 11 1024 229 3 NO 0 44.9 454
15:49:46 10 1024 245 5 O 0 45.7 446
15:52:47 10 1024 246 9 NO 0 45.4 457
15:55:48 10 1024 243 4 O 0 46.9 492
15:58:49 10 1024 244 6 N 0 47.6 498
16:01:52 11 1024 243 8 NW 0 47 507
16:04:48 11 1024 243 8 NO 0 45.8 536
16:07:49 11 1024 244 9 N 0 44.9 610
16:10:49 11 1024 242 8 S 0 44.9 653
16:13:50 11 1024 242 4 NO 0 44.6 686
16:16:47 11 1024 241 6 O 0 43.9 723
16:19:47 10 1024 238 7 W 0 44.7 748
16:22:47 10 1024 237 6 NO 0 44.8 765
16:25:49 11 1024 237 2 W 0 46 777
16:28:50 11 1024 239 3 NO 0 46.1 771
16:31:48 11 1024 240 3 N 0 45.4 789
16:34:48 11 1024 243 9 N 0 44.5 818
16:37:51 11 1024 242 2 W 0 44.4 839
16:40:48 11 1024 225 6 NO 0 45 862
16:43:47 11 1024 239 10 S 0 44.9 896
16:46:51 11 1024 222 0 SW 0 45.7 922
16:49:50 10 1024 226 4 NO 0 45.8 982
16:52:51 10 1024 220 2 NO 0 45.8 1022
16:55:48 10 1024 233 9 N 0 46.5 1059
16:58:49 10 1024 216 7 NO 0 46.8 1080
17:01:49 10 1024 213 10 NO 0 47 1125
17:04:47 10 1024 211 6 NW 0 47.9 1143
17:07:48 10 1024 215 4 0 47.7 1175
17:10:49 10 1024 218 8 W 0 48.2 1200
17:13:47 10 1024 218 7 NO 0 48.1 1218
17:16:47 10 1024 209 6 0 48.2 1239
17:19:50 10 1024 212 5 NW 0 49.2 1260
17:22:48 9 1024 211 6 NO 0 49.7 1275
17:25:47 9 1024 213 1 S 0 50.6 1307
17:28:47 9 1024 218 7 N 0 51.1 1318
17:31:48 9 1024 215 9 O 0 51.4 1337
17:34:49 9 1024 211 8 N 0 51.8 1346
17:37:48 9 1024 220 5 NO 0 52 1344
17:40:48 9 1024 213 4 N 0 52.8 1364
17:43:50 9 1024 205 5 NO 0 53.1 1375
17:46:49 9 1024 203 1 NW 0 53.5 1377
17:49:50 9 1024 205 0 SO 0 53.7 1395
17:52:50 9 1024 192 2 NO 0 53.8 1422
17:55:47 9 1024 178 4 W 0 53.7 1431
17:58:46 9 1024 168 11 N 0 54.1 1447
18:01:49 9 1024 161 8 N 0 54.5 1470
18:04:47 9 1024 147 5 W 0 54.7 1493
18:07:49 9 1024 147 5 SO 0 55.4 1456
18:10:49 9 1024 149 2 SW 0 56 1121
18:13:50 8 1024 146 4 N 0 56.7 1287
18:16:47 8 1024 141 3 NO 0 57.1 1089
18:19:49 8 1024 133 3 O 0 57.7 1079
18:22:49 8 1024 123 3 O 0 58.5 1385
18:25:49 8 1024 109 3 SW 0 58.8 1398
18:28:48 8 1024 95 3 O 0 59.5 1330
18:31:47 8 1024 73 3 S 0 60.1 1203
18:34:47 8 1024 55 3 NO 0 60.6 1209
18:37:48 8 1024 40 2 0 61 1275
18:40:49 8 1024 27 1 NW 0 61 1310
18:43:48 8 1024 23 4 SW 0 60.9 1306
18:46:47 8 1024 19 5 N 0 61.1 1336
18:49:48 7 1024 12 1 W 0 61.4 1359
18:52:48 7 1024 8 3 SO 0 62 1373
18:55:50 7 1024 4 2 NO 0 62.3 1397
18:58:47 7 1024 0 4 N 0 62.5 1388
19:01:48 7 1024 0 0 SO 0 62.7 1400
19:04:48 7 1024 0 0 NO 0 63.2 1411
19:07:46 7 1024 0 2 N 0 63.5 1257
19:10:47 7 1024 0 3 0 63.8 1252
19:13:47 7 1024 0 1 SO 0 64.1 1349
19:16:46 7 1024 0 0 N 0 64.6 1351
19:19:47 6 1024 0 0 S 0 65 1039
19:23:50 6 1024 0 1 O 0 65.7 1033
19:25:49 6 1024 0 2 SO 0 66.2 1281
19:28:49 6 1024 0 0 NO 0 66.5 1304
19:31:50 6 1024 0 0 SO 0 66.8 1284
19:34:46 6 1024 0 1 SO 0 67 1289
19:37:46 6 1024 0 2 O 0 67.2 1317
19:40:46 6 1024 0 2 N 0 67.2 1356
19:43:47 6 1024 0 0 NO 0 67.3 1423
19:46:49 6 1024 0 3 W 0 67.5 1484
19:49:48 6 1024 0 0 SO 0 67.7 1538
19:52:46 5 1024 0 0 O 0 67.8 1579
19:55:48 5 1024 0 0 O 0 68 1595
19:58:46 5 1024 0 0 O 0 68.5 1641
20:01:48 5 1024 0 0 SO 0 68.8 1677
20:04:48 5 1024 0 0 O 0 68.7 1700
20:07:49 5 1024 0 0 O 0 68.8 1705
20:10:50 5 1024 0 0 SO 0 69.2 1704
20:13:49 5 1024 0 0 NO 0 70.3 1753
20:16:47 5 1025 0 0 O 0 70.5 1790
20:19:48 5 1024 0 0 O 0 70.6 1804
20:22:48 5 1024 0 0 O 0 70.6 1818
20:25:45 4 1024 0 0 O 0 71.1 1845
20:28:47 4 1024 0 0 O 0 72 1867
20:31:48 4 1024 0 0 O 0 73.2 1919
20:34:46 4 1024 0 0 O 0 73.4 1941
20:37:47 4 1024 0 0 O 0 73.6 1958
20:40:49 4 1024 0 0 NO 0 74 1978
20:43:50 4 1024 0 0 SO 0 74.5 2005
20:46:48 4 1024 0 0 O 0 74.7 2036
20:49:48 4 1024 0 0 SO 0 74.9 2054
20:52:46 4 1024 0 0 O 0 75.2 2058
20:55:49 4 1024 0 0 SO 0 75.1 2060
20:58:48 4 1024 0 1 NO 0 74.8 2086
21:01:46 4 1024 0 2 NO 0 74.5 2111
21:04:47 4 1024 0 1 N 0 74.4 2102
21:07:48 4 1024 0 0 NO 0 74.4 2107
21:10:47 4 1024 0 2 O 0 74.5 2107
21:13:46 4 1024 0 1 SO 0 74.5 2111
21:16:46 4 1024 0 5 NO 0 74.5 2087
21:19:46 4 1024 0 1 O 0 74.3 2089
21:22:46 4 1024 0 3 NO 0 74.2 2100
21:25:47 4 1024 0 4 NO 0 74.5 2114
21:28:47 4 1024 0 0 N 0 74.6 2133
21:31:47 4 1024 0 2 O 0 74.8 2130
21:34:49 4 1024 0 0 NO 0 75.3 2134
21:37:45 4 1024 0 1 N 0 75.6 2138
21:40:47 4 1024 0 3 O 0 75.8 2149
21:43:48 4 1024 0 2 NO 0 76 2148
21:46:48 4 1024 0 3 S 0 75.9 2164
21:49:48 4 1024 0 1 O 0 75.6 2171
21:52:47 4 1024 0 3 NO 0 75.5 2170
21:55:45 4 1024 0 3 N 0 75.1 2164
21:58:47 4 1024 0 2 O 0 74.7 2145
22:01:46 4 1023 0 2 O 0 74.5 2133
22:04:47 4 1024 0 0 N 0 74.3 2144
22:07:47 4 1024 0 3 NO 0 74.3 2170
22:10:45 4 1024 0 7 N 0 74.3 2165
22:13:48 4 1024 0 2 N 0 74.2 2142
22:16:44 4 1024 0 1 O 0 74.2 2121
22:19:48 4 1024 0 4 NW 0 74.3 2137
22:22:47 4 1024 0 2 NO 0 74.5 2149
22:25:46 4 1024 0 0 S 0 74.7 2130
22:28:48 4 1024 0 1 SO 0 75 2114
22:31:47 4 1023 0 5 N 0 75.2 2119
22:34:49 4 1024 0 2 NO 0 75.9 2134
22:37:47 3 1023 0 1 SO 0 76.1 2148
22:40:48 3 1023 0 2 SO 0 76.4 2162
22:43:48 3 1023 0 4 SO 0 76.8 2168
22:46:47 3 1023 0 4 N 0 77.2 2186
22:49:45 3 1023 0 0 O 0 77.4 2186
22:52:45 3 1023 0 1 N 0 77.7 2178
22:55:48 3 1024 0 7 NW 0 78.1 2192
22:58:48 3 1023 0 4 N 0 78.2 2185
23:01:51 3 1024 0 2 NO 0 78.7 2175
23:04:49 3 1023 0 4 NO 0 78.8 2148
23:07:46 3 1024 0 1 NO 0 78.8 2171
23:10:46 3 1023 0 5 N 0 79.6 2184
23:13:48 3 1023 0 6 O 0 80.1 2200
23:16:47 3 1022 0 6 NW 0 80.7 2168
23:19:47 3 1023 0 3 N 0 81.3 2154
23:22:48 3 1023 0 4 NO 0 82.1 2136
23:25:48 3 1023 0 1 O 0 82.6 2147
23:28:47 3 1023 0 7 N 0 82.9 2133
23:31:48 3 1023 0 3 N 0 83 2133
23:34:47 3 1024 0 9 N 0 82.9 2113
23:37:48 3 1023 0 5 N 0 82.7 2121
23:40:48 3 1023 0 6 NO 0 82.6 2108
23:43:48 3 1022 0 4 O 0 82.4 1526
23:46:48 3 1023 0 3 NW 0 82.2 1473
23:49:48 3 1023 0 3 O 0 82.2 1260
23:52:48 3 1023 0 2 N 0 82.7 1627
23:55:49 3 1023 0 4 NO 0 83.1 1779
23:58:47 3 1022 0 1 NO 0 83.4 1765

Letzte Änderung : 04-Jan-2022
Copyright Jens Köhler, Wolfsburg, Obere Dorfstraße 10d